Time,TemperatureF,DewpointF,PressureIn,WindDirection,WindDirectionDegrees,WindSpeedMPH,WindSpeedGustMPH,Humidity,HourlyPrecipIn,Conditions,Clouds,dailyrainin,SolarRadiationWatts/m^2,SoftwareType,DateUTC
2013-02-01 00:03:00,33.2,17.0,29.68,East,92,11.0,11.0,51,0.00,,,0.00,0,weatherlink.com 1.10,2013-02-01 05:03:00,
2013-02-01 00:18:00,33.1,17.0,29.68,SSW,196,4.0,16.0,53,0.00,,,0.00,0,weatherlink.com 1.10,2013-02-01 05:18:00,
2013-02-01 00:33:00,32.7,17.0,29.68,SSW,210,9.0,17.0,53,0.00,,,0.00,0,weatherlink.com 1.10,2013-02-01 05:33:00,
2013-02-01 00:48:00,32.4,17.0,29.68,South,170,4.0,14.0,53,0.00,,,0.00,0,weatherlink.com 1.10,2013-02-01 05:48:00,
2013-02-01 01:03:00,32.1,17.0,29.70,South,178,3.0,16.0,53,0.00,,,0.00,0,weatherlink.com 1.10,2013-02-01 06:03:00,
2013-02-01 01:18:00,31.9,16.0,29.70,SSW,209,6.0,14.0,52,0.00,,,0.00,0,weatherlink.com 1.10,2013-02-01 06:18:00,
2013-02-01 01:33:00,31.7,15.0,29.71,SSE,158,3.0,14.0,51,0.00,,,0.00,0,weatherlink.com 1.10,2013-02-01 06:33:00,
2013-02-01 01:48:00,31.6,15.0,29.72,SE,125,2.0,15.0,50,0.00,,,0.00,0,weatherlink.com 1.10,2013-02-01 06:48:00,
2013-02-01 02:03:00,31.4,14.0,29.72,ESE,104,3.0,9.0,49,0.00,,,0.00,0,weatherlink.com 1.10,2013-02-01 07:03:00,
2013-02-01 02:18:00,31.2,13.0,29.72,ESE,107,10.0,11.0,47,0.00,,,0.00,0,weatherlink.com 1.10,2013-02-01 07:18:00,
2013-02-01 02:33:00,31.1,12.0,29.73,South,183,4.0,18.0,46,0.00,,,0.00,0,weatherlink.com 1.10,2013-02-01 07:33:00,
2013-02-01 02:48:00,31.0,11.0,29.73,SE,128,2.0,15.0,44,0.00,,,0.00,0,weatherlink.com 1.10,2013-02-01 07:48:00,
2013-02-01 03:03:00,31.1,11.0,29.74,SSE,164,4.0,16.0,43,0.00,,,0.00,0,weatherlink.com 1.10,2013-02-01 08:03:00,
2013-02-01 03:19:00,30.9,11.0,29.74,SSE,150,4.0,17.0,43,0.00,,,0.00,0,weatherlink.com 1.10,2013-02-01 08:19:00,
2013-02-01 03:34:00,30.6,11.0,29.75,WSW,246,4.0,13.0,45,0.00,,,0.00,0,weatherlink.com 1.10,2013-02-01 08:34:00,
2013-02-01 03:49:00,30.5,12.0,29.75,ESE,105,2.0,9.0,46,0.00,,,0.00,0,weatherlink.com 1.10,2013-02-01 08:49:00,
2013-02-01 04:04:00,30.2,12.0,29.75,ESE,112,7.0,10.0,47,0.00,,,0.00,0,weatherlink.com 1.10,2013-02-01 09:04:00,
2013-02-01 04:19:00,30.2,13.0,29.75,SSE,162,2.0,13.0,48,0.00,,,0.00,0,weatherlink.com 1.10,2013-02-01 09:19:00,
2013-02-01 04:34:00,30.0,13.0,29.75,ESE,102,1.0,10.0,49,0.00,,,0.00,0,weatherlink.com 1.10,2013-02-01 09:34:00,
2013-02-01 04:49:00,30.0,13.0,29.74,ESE,107,4.0,11.0,49,0.00,,,0.00,0,weatherlink.com 1.10,2013-02-01 09:49:00,
2013-02-01 05:04:00,29.8,13.0,29.75,SSE,154,2.0,10.0,49,0.00,,,0.00,0,weatherlink.com 1.10,2013-02-01 10:04:00,
2013-02-01 05:19:00,29.7,13.0,29.75,East,94,2.0,8.0,50,0.00,,,0.00,0,weatherlink.com 1.10,2013-02-01 10:19:00,
2013-02-01 05:34:00,29.6,13.0,29.76,SE,130,2.0,6.0,51,0.00,,,0.00,0,weatherlink.com 1.10,2013-02-01 10:34:00,
2013-02-01 05:49:00,29.6,14.0,29.76,ESE,111,0.0,13.0,52,0.00,,,0.00,0,weatherlink.com 1.10,2013-02-01 10:49:00,
2013-02-01 06:05:00,29.7,14.0,29.77,ESE,118,8.0,15.0,52,0.00,,,0.00,0,weatherlink.com 1.10,2013-02-01 11:05:00,
2013-02-01 06:19:00,29.8,14.0,29.78,SE,128,7.0,12.0,52,0.00,,,0.00,0,weatherlink.com 1.10,2013-02-01 11:19:00,
2013-02-01 06:35:00,29.9,15.0,29.78,SE,143,3.0,11.0,53,0.00,,,0.00,0,weatherlink.com 1.10,2013-02-01 11:35:00,
2013-02-01 06:49:00,30.0,15.0,29.79,South,186,3.0,16.0,53,0.00,,,0.00,0,weatherlink.com 1.10,2013-02-01 11:49:00,
2013-02-01 07:05:00,30.1,15.0,29.80,East,96,5.0,14.0,53,0.00,,,0.00,7,weatherlink.com 1.10,2013-02-01 12:05:00,
2013-02-01 07:20:00,30.0,15.0,29.81,SE,142,4.0,12.0,53,0.00,,,0.00,12,weatherlink.com 1.10,2013-02-01 12:20:00,
2013-02-01 07:35:00,30.0,15.0,29.82,ESE,109,4.0,10.0,54,0.00,,,0.00,23,weatherlink.com 1.10,2013-02-01 12:35:00,
2013-02-01 07:50:00,30.3,15.0,29.83,SSE,167,8.0,17.0,53,0.00,,,0.00,33,weatherlink.com 1.10,2013-02-01 12:50:00,
2013-02-01 08:05:00,30.6,16.0,29.83,SW,229,4.0,13.0,54,0.00,,,0.00,69,weatherlink.com 1.10,2013-02-01 13:05:00,
2013-02-01 08:20:00,31.1,16.0,29.83,SSW,192,2.0,14.0,53,0.00,,,0.00,95,weatherlink.com 1.10,2013-02-01 13:20:00,
2013-02-01 08:36:00,31.2,15.0,29.82,South,180,4.0,13.0,52,0.00,,,0.00,81,weatherlink.com 1.10,2013-02-01 13:36:00,
2013-02-01 08:51:00,31.3,15.0,29.82,SSE,163,9.0,16.0,51,0.00,,,0.00,118,weatherlink.com 1.10,2013-02-01 13:51:00,
2013-02-01 09:06:00,31.4,15.0,29.81,SSW,203,7.0,12.0,52,0.00,,,0.00,142,weatherlink.com 1.10,2013-02-01 14:06:00,
2013-02-01 09:21:00,31.2,14.0,29.81,SSW,196,4.0,14.0,50,0.00,,,0.00,132,weatherlink.com 1.10,2013-02-01 14:21:00,
2013-02-01 09:36:00,31.4,14.0,29.81,SW,223,6.0,20.0,49,0.00,,,0.00,178,weatherlink.com 1.10,2013-02-01 14:36:00,
2013-02-01 09:51:00,32.2,14.0,29.82,South,187,6.0,9.0,47,0.00,,,0.00,204,weatherlink.com 1.10,2013-02-01 14:51:00,
2013-02-01 10:07:00,32.3,12.0,29.81,SSE,155,7.0,16.0,44,0.00,,,0.00,232,weatherlink.com 1.10,2013-02-01 15:07:00,
2013-02-01 10:22:00,33.0,13.0,29.82,SSW,213,6.0,9.0,43,0.00,,,0.00,227,weatherlink.com 1.10,2013-02-01 15:22:00,
2013-02-01 10:37:00,32.5,13.0,29.82,SSW,198,0.0,9.0,44,0.00,,,0.00,274,weatherlink.com 1.10,2013-02-01 15:37:00,
2013-02-01 10:52:00,33.3,14.0,29.83,South,191,4.0,9.0,45,0.00,,,0.00,371,weatherlink.com 1.10,2013-02-01 15:52:00,
2013-02-01 11:07:00,33.2,13.0,29.82,WSW,254,8.0,12.0,43,0.00,,,0.00,388,weatherlink.com 1.10,2013-02-01 16:07:00,
2013-02-01 11:38:00,33.0,12.0,29.79,WSW,248,7.0,14.0,42,0.00,,,0.00,410,weatherlink.com 1.10,2013-02-01 16:38:00,
2013-02-01 11:53:00,33.7,14.0,29.78,WSW,239,4.0,14.0,44,0.00,,,0.00,450,weatherlink.com 1.10,2013-02-01 16:53:00,
2013-02-01 12:08:00,33.6,12.0,29.77,WSW,255,7.0,13.0,41,0.00,,,0.00,264,weatherlink.com 1.10,2013-02-01 17:08:00,
2013-02-01 12:23:00,34.0,14.0,29.78,SW,236,5.0,17.0,44,0.00,,,0.00,216,weatherlink.com 1.10,2013-02-01 17:23:00,
2013-02-01 12:38:00,33.3,13.0,29.79,SSW,200,4.0,11.0,44,0.00,,,0.00,206,weatherlink.com 1.10,2013-02-01 17:38:00,
2013-02-01 12:53:00,33.0,13.0,29.78,SSW,208,2.0,13.0,44,0.00,,,0.00,232,weatherlink.com 1.10,2013-02-01 17:53:00,
2013-02-01 13:08:00,33.1,12.0,29.79,South,177,2.0,9.0,42,0.00,,,0.00,239,weatherlink.com 1.10,2013-02-01 18:08:00,
2013-02-01 13:23:00,33.2,11.0,29.79,SSW,194,8.0,11.0,40,0.00,,,0.00,206,weatherlink.com 1.10,2013-02-01 18:23:00,
2013-02-01 13:39:00,33.3,12.0,29.80,SW,221,3.0,10.0,41,0.00,,,0.00,141,weatherlink.com 1.10,2013-02-01 18:39:00,
2013-02-01 13:54:00,32.8,10.0,29.80,WSW,251,3.0,19.0,39,0.00,,,0.00,188,weatherlink.com 1.10,2013-02-01 18:54:00,
2013-02-01 14:09:00,33.2,10.0,29.80,South,172,7.0,10.0,38,0.00,,,0.00,248,weatherlink.com 1.10,2013-02-01 19:09:00,
2013-02-01 14:25:00,33.5,8.0,29.81,SSW,211,5.0,13.0,34,0.00,,,0.00,200,weatherlink.com 1.10,2013-02-01 19:25:00,
2013-02-01 14:39:00,33.2,6.0,29.82,SSW,211,9.0,15.0,32,0.00,,,0.00,176,weatherlink.com 1.10,2013-02-01 19:39:00,
2013-02-01 14:55:00,33.5,7.0,29.82,SW,223,6.0,13.0,33,0.00,,,0.00,107,weatherlink.com 1.10,2013-02-01 19:55:00,
2013-02-01 15:09:00,32.9,9.0,29.83,West,265,9.0,15.0,37,0.00,,,0.00,130,weatherlink.com 1.10,2013-02-01 20:09:00,
2013-02-01 15:25:00,32.7,10.0,29.84,WSW,257,11.0,13.0,38,0.00,,,0.00,121,weatherlink.com 1.10,2013-02-01 20:25:00,
2013-02-01 15:40:00,32.4,10.0,29.85,South,190,11.0,14.0,40,0.00,,,0.00,181,weatherlink.com 1.10,2013-02-01 20:40:00,
2013-02-01 15:55:00,32.7,10.0,29.86,WSW,248,7.0,11.0,39,0.00,,,0.00,98,weatherlink.com 1.10,2013-02-01 20:55:00,
2013-02-01 16:10:00,32.3,10.0,29.88,SSE,163,6.0,11.0,40,0.00,,,0.00,35,weatherlink.com 1.10,2013-02-01 21:10:00,
2013-02-01 16:25:00,31.6,11.0,29.89,South,177,10.0,11.0,43,0.00,,,0.00,58,weatherlink.com 1.10,2013-02-01 21:25:00,
2013-02-01 16:40:00,31.7,10.0,29.90,SSW,212,7.0,16.0,40,0.00,,,0.00,33,weatherlink.com 1.10,2013-02-01 21:40:00,
2013-02-01 16:55:00,31.2,10.0,29.91,WSW,246,5.0,12.0,42,0.00,,,0.00,11,weatherlink.com 1.10,2013-02-01 21:55:00,
2013-02-01 17:11:00,30.9,11.0,29.93,WSW,248,11.0,21.0,43,0.00,,,0.00,0,weatherlink.com 1.10,2013-02-01 22:11:00,
2013-02-01 17:25:00,30.1,13.0,29.95,WSW,242,4.0,12.0,50,0.00,,,0.00,0,weatherlink.com 1.10,2013-02-01 22:25:00,
2013-02-01 17:56:00,29.6,9.0,29.97,SSW,211,5.0,11.0,42,0.00,,,0.00,0,weatherlink.com 1.10,2013-02-01 22:56:00,
2013-02-01 18:11:00,29.6,8.0,29.98,SSW,205,5.0,12.0,40,0.00,,,0.00,0,weatherlink.com 1.10,2013-02-01 23:11:00,
2013-02-01 18:27:00,29.3,8.0,30.00,WSW,240,5.0,10.0,41,0.00,,,0.00,0,weatherlink.com 1.10,2013-02-01 23:27:00,
2013-02-01 18:42:00,29.1,8.0,30.02,WSW,246,4.0,10.0,41,0.00,,,0.00,0,weatherlink.com 1.10,2013-02-01 23:42:00,
2013-02-01 18:57:00,28.8,8.0,30.02,SSW,198,12.0,15.0,41,0.00,,,0.00,0,weatherlink.com 1.10,2013-02-01 23:57:00,
2013-02-01 19:12:00,28.6,9.0,30.03,West,267,2.0,11.0,43,0.00,,,0.00,0,weatherlink.com 1.10,2013-02-02 00:12:00,
2013-02-01 19:27:00,28.1,7.0,30.04,SSW,211,6.0,22.0,41,0.00,,,0.00,0,weatherlink.com 1.10,2013-02-02 00:27:00,
2013-02-01 19:42:00,27.6,7.0,30.06,SSW,202,10.0,15.0,41,0.00,,,0.00,0,weatherlink.com 1.10,2013-02-02 00:42:00,
2013-02-01 19:57:00,27.3,7.0,30.06,SW,214,9.0,15.0,42,0.00,,,0.00,0,weatherlink.com 1.10,2013-02-02 00:57:00,
2013-02-01 20:13:00,27.0,7.0,30.07,SW,233,4.0,15.0,42,0.00,,,0.00,0,weatherlink.com 1.10,2013-02-02 01:13:00,
2013-02-01 20:28:00,26.8,7.0,30.08,WSW,238,4.0,9.0,43,0.00,,,0.00,0,weatherlink.com 1.10,2013-02-02 01:28:00,
2013-02-01 20:43:00,26.5,7.0,30.08,SSW,209,5.0,10.0,43,0.00,,,0.00,0,weatherlink.com 1.10,2013-02-02 01:43:00,
2013-02-01 20:58:00,26.4,7.0,30.09,SW,224,4.0,9.0,44,0.00,,,0.00,0,weatherlink.com 1.10,2013-02-02 01:58:00,
2013-02-01 21:13:00,26.2,7.0,30.10,SW,216,3.0,7.0,44,0.00,,,0.00,0,weatherlink.com 1.10,2013-02-02 02:13:00,
2013-02-01 21:29:00,25.9,7.0,30.11,South,182,1.0,5.0,44,0.00,,,0.00,0,weatherlink.com 1.10,2013-02-02 02:29:00,
2013-02-01 21:45:00,25.7,7.0,30.11,SW,227,3.0,4.0,45,0.00,,,0.00,0,weatherlink.com 1.10,2013-02-02 02:45:00,
2013-02-01 21:59:00,25.5,7.0,30.12,SW,227,0.0,3.0,45,0.00,,,0.00,0,weatherlink.com 1.10,2013-02-02 02:59:00,
2013-02-01 22:15:00,25.0,7.0,30.12,SW,221,0.0,3.0,47,0.00,,,0.00,0,weatherlink.com 1.10,2013-02-02 03:15:00,
2013-02-01 22:29:00,24.6,7.0,30.12,SW,221,1.0,4.0,48,0.00,,,0.00,0,weatherlink.com 1.10,2013-02-02 03:29:00,
2013-02-01 22:45:00,24.3,8.0,30.13,South,188,0.0,3.0,49,0.00,,,0.00,0,weatherlink.com 1.10,2013-02-02 03:45:00,
2013-02-01 23:00:00,24.1,8.0,30.13,South,188,0.0,2.0,50,0.00,,,0.00,0,weatherlink.com 1.10,2013-02-02 04:00:00,
2013-02-01 23:15:00,23.9,8.0,30.14,South,188,0.0,2.0,52,0.00,,,0.00,0,weatherlink.com 1.10,2013-02-02 04:15:00,
2013-02-01 23:30:00,23.7,9.0,30.14,South,188,0.0,1.0,54,0.00,,,0.00,0,weatherlink.com 1.10,2013-02-02 04:30:00,
2013-02-01 23:45:00,23.3,9.0,30.14,South,188,1.0,2.0,55,0.00,,,0.00,0,weatherlink.com 1.10,2013-02-02 04:45:00,